EW1761 Weather Reports


time (UTC)temp
C
wind
direction
speed
KPH
gust
KPH
rain 1hr
cm
rain 24hr
cm
rain mn
cm
humidity
%
barometer
mb
20260503184553 19 267 4.8 16.1 0.00 0.00 0.00 32 1019.2
20260503183058 18 241 4.8 16.1 0.00 0.00 0.00 35 1019.4
20260503181605 18 333 8.0 22.5 0.00 0.00 0.00 37 1019.7
20260503180053 18 10 8.0 16.1 0.00 0.00 0.00 36 1019.7
20260503174556 18 221 4.8 12.9 0.00 0.00 0.00 37 1019.9
20260503173050 17 30 4.8 14.5 0.00 0.00 0.00 38 1020.2
20260503171546 17 315 8.0 16.1 0.00 0.00 0.00 40 1020.6
20260503081515 3 32 0.0 3.2 0.00 0.03 0.00 88 1018.7
20260503071503 3 32 0.0 1.6 0.00 0.03 0.00 84 1017.9
20260503054552 5 32 0.0 0.0 0.00 0.03 0.00 80 1017.5
20260503053050 5 32 0.0 0.0 0.00 0.03 0.00 79 1017.5
20260503051547 6 32 0.0 0.0 0.00 0.03 0.00 78 1017.5
20260503050043 6 32 0.0 1.6 0.00 0.03 0.00 76 1017.2
20260503044558 6 32 0.0 1.6 0.00 0.03 0.00 75 1017.1
20260503043037 7 32 0.0 1.6 0.00 0.03 0.00 74 1016.9
20260503041537 7 32 0.0 0.0 0.00 0.03 0.00 73 1016.8
20260503040035 7 32 0.0 0.0 0.00 0.03 0.00 72 1016.6
20260503034527 8 32 0.0 0.0 0.00 0.03 0.03 69 1016.5
20260503033023 9 32 0.0 1.6 0.00 0.03 0.03 65 1016.5
20260503031521 9 32 1.6 3.2 0.00 0.03 0.03 64 1016.4
20260503030016 10 32 0.0 0.0 0.00 0.03 0.03 65 1016.3
20260503024514 11 32 0.0 4.8 0.00 0.03 0.03 61 1016.2
20260503023017 10 327 1.6 3.2 0.00 0.03 0.03 62 1016.1
20260503021516 11 325 0.0 1.6 0.00 0.03 0.03 62 1015.8
20260503020006 11 325 0.0 1.6 0.00 0.03 0.03 62 1015.6
20260503014503 12 325 0.0 4.8 0.00 0.03 0.03 64 1015.4
20260503013001 12 327 1.6 6.4 0.00 0.03 0.03 66 1015.0
20260503011609 12 333 0.0 4.8 0.00 0.03 0.03 71 1014.8
20260503010105 12 44 0.0 4.8 0.00 0.03 0.03 75 1014.5
20260503004603 12 45 1.6 4.8 0.00 0.03 0.03 74 1014.3
20260503003104 12 45 1.6 6.4 0.00 0.03 0.03 73 1014.2
20260503001605 12 86 0.0 1.6 0.00 0.03 0.03 71 1013.9
20260503000058 12 86 1.6 4.8 0.00 0.03 0.03 70 1013.5
20260502234558 13 86 0.0 1.6 0.00 0.03 0.03 68 1013.0
20260502233057 13 86 0.0 0.0 0.00 0.03 0.03 67 1012.7
20260502231559 14 86 0.0 0.0 0.00 0.03 0.03 66 1012.7
20260502230055 15 86 0.0 0.0 0.00 0.03 0.03 63 1012.4
20260502224556 15 86 0.0 3.2 0.00 0.03 0.03 58 1012.4
20260502223055 16 111 0.0 4.8 0.00 0.03 0.03 55 1012.4
20260502221554 17 116 1.6 4.8 0.00 0.03 0.03 49 1012.2
20260502220140 17 113 0.0 4.8 0.00 0.03 0.03 51 1012.1
20260502214554 17 238 4.8 6.4 0.00 0.03 0.03 49 1012.0
20260502213053 18 355 0.0 3.2 0.00 0.03 0.03 50 1011.9
20260502211551 16 101 1.6 4.8 0.00 0.03 0.03 53 1012.1
20260502210100 16 96 0.0 6.4 0.00 0.03 0.03 52 1012.0
20260502204559 16 314 0.0 3.2 0.00 0.03 0.03 50 1012.1
20260502203101 17 211 3.2 6.4 0.00 0.03 0.03 46 1012.1
20260502201547 17 344 6.4 16.1 0.00 0.03 0.03 47 1012.1
20260502200046 17 252 1.6 12.9 0.00 0.03 0.03 53 1012.3
20260502194551 17 333 4.8 11.3 0.00 0.03 0.03 49 1012.5
20260502193042 17 26 1.6 6.4 0.00 0.03 0.03 52 1012.8
20260502191543 16 21 3.2 14.5 0.00 0.03 0.03 50 1013.0
20260502190040 16 347 0.0 6.4 0.00 0.03 0.03 56 1013.2